Flag for U.S.A. Weather past 2 weeks in Sevierville, Tennessee, U.S.A.

Now
33 °F

Overcast.


Feels Like: 33 °F
Forecast: 27 / 45 °F
Wind: No wind

Location: McGhee Tyson Airport

Current Time: Dec 19, 2014 at 6:08:40 AM

Latest Report: Dec 19, 2014 at 4:53 AM


Visibility: 10 mi

Pressure: 30.19 "Hg

Humidity: 82%

Dew point: 28 °F

Location of SeviervilleLocation

Historic Weather in Sevierville — Graph

°F

Sevierville temperature yesterday

Maximum temperature yesterday: 43 °F (at 1:53 PM)
Minimum temperature yesterday: 32 °F (at 4:53 AM)
Average temperature yesterday: 39 °F

Past Weeks' High & Low Weather Summary

 TemperatureHumidityPressure
High60 °F (Dec 5, 3:53 PM)100% (Dec 6, 3:53 AM)30.47 "Hg (Dec 6, 3:53 AM)
Low22 °F (Dec 12, 5:53 AM)27% (Dec 12, 3:53 PM)29.88 "Hg (Dec 16, 4:53 AM)
Average41 °F77%30.21 "Hg
* Reported Dec 4 4:53 AM — Dec 19 4:53 AM, Sevierville, Weather by CustomWeather, © 2014

Note: Actual official high and low records may vary slightly from our data, if they occured in-between our weather recording intervals... More about our weather records

Advertising

Sevierville weather history for previous 24 hours

 ConditionsComfort  
Time TempWeatherWind HumidityBarometerVisibility
4:53 AM
Dec 19
33 °FOvercast.No wind82%30.19 "Hg10 mi
3:53 AM32 °FClear.3 mph82%30.19 "Hg10 mi
2:53 AM34 °FClear.3 mph73%30.18 "Hg10 mi
1:53 AM37 °FPassing clouds.No wind62%30.18 "Hg10 mi
12:53 AM38 °FPassing clouds.No wind65%30.18 "Hg10 mi
11:53 PM
Dec 18
40 °FOvercast.No wind60%30.19 "Hg10 mi
10:53 PM41 °FOvercast.3 mph62%30.19 "Hg10 mi
9:53 PM42 °FOvercast.No wind68%30.17 "Hg10 mi
8:53 PM42 °FMostly cloudy.No wind65%30.18 "Hg10 mi
7:53 PM43 °FOvercast.No wind60%30.17 "Hg10 mi
6:53 PM43 °FOvercast.No wind62%30.17 "Hg10 mi
5:53 PM43 °FMostly cloudy.3 mph65%30.16 "Hg10 mi
4:53 PM43 °FMostly cloudy.No wind60%30.18 "Hg10 mi
3:53 PM43 °FOvercast.No wind62%30.15 "Hg10 mi
2:53 PM43 °FOvercast.No wind60%30.14 "Hg10 mi
1:53 PM43 °FOvercast.No wind58%30.15 "Hg10 mi
12:53 PM41 °FPartly sunny.No wind62%30.17 "Hg10 mi
11:53 AM40 °FPartly sunny.No wind68%30.20 "Hg10 mi
10:53 AM38 °FPartly sunny.6 mph73%30.21 "Hg10 mi
9:53 AM36 °FBroken clouds.7 mph82%30.22 "Hg10 mi
8:53 AM35 °FPartly sunny.5 mph82%30.23 "Hg10 mi
7:53 AM34 °FMostly cloudy.5 mph82%30.23 "Hg10 mi
6:53 AM34 °FLight rain. Overcast.3 mph82%30.24 "Hg10 mi
Weather by CustomWeather, © 2014

See weather overviewHow to use our weather pages